| time (UTC) | temp C | wind direction | speed KPH | gust KPH | rain 1hr cm | rain 24hr cm | rain mn cm | humidity % | barometer mb |
| 20260906051846 | 15 | 292 | 0.0 | 0.0 | 0.00 | 0.00 | 0.00 | 91 | 1024.1 |
| 20260906051345 | 15 | 292 | 0.0 | 0.0 | 0.00 | 0.00 | 0.00 | 91 | 1023.9 |
| 20260906050845 | 15 | 22 | 0.0 | 0.0 | 0.00 | 0.00 | 0.00 | 91 | 1023.9 |
| 20260906050344 | 15 | 22 | 0.0 | 0.0 | 0.00 | 0.00 | 0.00 | 91 | 1023.8 |
| 20260906045845 | 15 | 22 | 0.0 | 0.0 | 0.00 | 0.00 | 0.00 | 91 | 1023.8 |
| 20260906045343 | 15 | 315 | 0.0 | 0.0 | 0.00 | 0.00 | 0.00 | 91 | 1023.8 |
| 20260906044847 | 15 | 315 | 0.0 | 0.0 | 0.00 | 0.00 | 0.00 | 91 | 1023.8 |
| 20260906044343 | 15 | 292 | 0.0 | 0.0 | 0.00 | 0.00 | 0.00 | 91 | 1023.7 |
| 20260906043844 | 15 | 0 | 0.0 | 0.0 | 0.00 | 0.00 | 0.00 | 91 | 1023.8 |
| 20260906043342 | 15 | 22 | 0.0 | 0.0 | 0.00 | 0.00 | 0.00 | 91 | 1023.7 |
| 20260906042342 | 15 | 22 | 0.0 | 0.0 | 0.00 | 0.00 | 0.00 | 91 | 1023.6 |
| 20260906041843 | 15 | 22 | 0.0 | 0.0 | 0.00 | 0.00 | 0.00 | 91 | 1023.5 |
| 20260906041341 | 15 | 22 | 0.0 | 0.0 | 0.00 | 0.00 | 0.00 | 91 | 1023.6 |
| 20260906040842 | 15 | 22 | 0.0 | 0.0 | 0.00 | 0.00 | 0.00 | 91 | 1023.6 |
| 20260906040341 | 15 | 22 | 0.0 | 0.0 | 0.00 | 0.00 | 0.00 | 91 | 1023.5 |
| 20260906035841 | 15 | 22 | 0.0 | 0.0 | 0.00 | 0.00 | 0.00 | 90 | 1023.4 |
| 20260906035340 | 15 | 22 | 0.0 | 0.0 | 0.00 | 0.00 | 0.00 | 90 | 1023.3 |
| 20260906034841 | 15 | 22 | 0.0 | 0.0 | 0.00 | 0.00 | 0.00 | 90 | 1023.4 |
| 20260906034339 | 15 | 22 | 0.0 | 0.0 | 0.00 | 0.00 | 0.00 | 90 | 1023.3 |
| 20260906033840 | 15 | 22 | 0.0 | 0.0 | 0.00 | 0.00 | 0.00 | 90 | 1023.2 |
| 20260906033339 | 15 | 22 | 0.0 | 0.0 | 0.00 | 0.00 | 0.00 | 90 | 1023.3 |
| 20260906032840 | 15 | 22 | 0.0 | 0.0 | 0.00 | 0.00 | 0.00 | 90 | 1023.2 |
| 20260906032338 | 15 | 22 | 0.0 | 0.0 | 0.00 | 0.00 | 0.00 | 91 | 1023.3 |
| 20260906031839 | 16 | 22 | 0.0 | 0.0 | 0.00 | 0.00 | 0.00 | 91 | 1023.2 |
| 20260906031338 | 16 | 22 | 0.0 | 0.0 | 0.00 | 0.00 | 0.00 | 91 | 1023.0 |
| 20260906030839 | 16 | 22 | 0.0 | 0.0 | 0.00 | 0.00 | 0.00 | 91 | 1023.1 |
| 20260906030337 | 16 | 22 | 0.0 | 1.6 | 0.00 | 0.00 | 0.00 | 90 | 1023.1 |
| 20260906025838 | 16 | 22 | 1.6 | 1.6 | 0.00 | 0.00 | 0.00 | 90 | 1023.1 |
| 20260906025337 | 16 | 22 | 1.6 | 1.6 | 0.00 | 0.00 | 0.00 | 90 | 1022.9 |
| 20260906024837 | 16 | 22 | 0.0 | 0.0 | 0.00 | 0.00 | 0.00 | 90 | 1023.1 |
| 20260906024336 | 16 | 22 | 0.0 | 0.0 | 0.00 | 0.00 | 0.00 | 90 | 1022.9 |
| 20260906023837 | 16 | 22 | 0.0 | 0.0 | 0.00 | 0.00 | 0.00 | 90 | 1022.9 |
| 20260906023335 | 16 | 22 | 0.0 | 0.0 | 0.00 | 0.00 | 0.00 | 90 | 1023.0 |
| 20260906022836 | 16 | 0 | 0.0 | 1.6 | 0.00 | 0.00 | 0.00 | 90 | 1022.8 |
| 20260906022335 | 16 | 22 | 0.0 | 0.0 | 0.00 | 0.00 | 0.00 | 89 | 1022.9 |
| 20260906021836 | 16 | 22 | 0.0 | 0.0 | 0.00 | 0.00 | 0.00 | 89 | 1022.8 |
| 20260906021334 | 16 | 22 | 0.0 | 0.0 | 0.00 | 0.00 | 0.00 | 89 | 1022.9 |
| 20260906020835 | 16 | 22 | 0.0 | 0.0 | 0.00 | 0.00 | 0.00 | 89 | 1022.9 |
| 20260906020334 | 16 | 22 | 0.0 | 0.0 | 0.00 | 0.00 | 0.00 | 90 | 1022.8 |
| 20260906015838 | 16 | 22 | 0.0 | 0.0 | 0.00 | 0.00 | 0.00 | 90 | 1022.9 |
| 20260906015333 | 16 | 22 | 0.0 | 0.0 | 0.00 | 0.00 | 0.00 | 89 | 1022.9 |
| 20260906014835 | 16 | 22 | 0.0 | 0.0 | 0.00 | 0.00 | 0.00 | 89 | 1022.6 |
| 20260906014333 | 17 | 22 | 0.0 | 0.0 | 0.00 | 0.00 | 0.00 | 89 | 1022.6 |
| 20260906013833 | 17 | 22 | 0.0 | 0.0 | 0.00 | 0.00 | 0.00 | 89 | 1022.6 |
| 20260906013332 | 17 | 0 | 0.0 | 0.0 | 0.00 | 0.00 | 0.00 | 89 | 1022.5 |
| 20260906012833 | 17 | 22 | 0.0 | 0.0 | 0.00 | 0.00 | 0.00 | 89 | 1022.5 |
| 20260906012331 | 17 | 22 | 0.0 | 0.0 | 0.00 | 0.00 | 0.00 | 89 | 1022.5 |
| 20260906011331 | 17 | 135 | 0.0 | 0.0 | 0.00 | 0.00 | 0.00 | 89 | 1022.6 |
| 20260906010330 | 17 | 22 | 0.0 | 0.0 | 0.00 | 0.00 | 0.00 | 89 | 1022.7 |
| 20260906005831 | 17 | 22 | 0.0 | 0.0 | 0.00 | 0.00 | 0.00 | 89 | 1022.7 |
| 20260906005330 | 17 | 22 | 0.0 | 0.0 | 0.00 | 0.00 | 0.00 | 89 | 1022.5 |
| 20260906004329 | 17 | 22 | 0.0 | 0.0 | 0.00 | 0.00 | 0.00 | 89 | 1022.3 |
| 20260906003830 | 17 | 22 | 0.0 | 0.0 | 0.00 | 0.00 | 0.00 | 89 | 1022.3 |
| 20260906003329 | 17 | 22 | 0.0 | 0.0 | 0.00 | 0.00 | 0.00 | 89 | 1022.3 |
| 20260906002328 | 17 | 22 | 0.0 | 0.0 | 0.00 | 0.00 | 0.00 | 89 | 1022.2 |
| 20260906001327 | 17 | 67 | 0.0 | 0.0 | 0.00 | 0.00 | 0.00 | 89 | 1022.2 |
| 20260906000831 | 17 | 90 | 0.0 | 0.0 | 0.00 | 0.00 | 0.00 | 89 | 1022.2 |
| 20260906000327 | 17 | 315 | 0.0 | 0.0 | 0.00 | 0.00 | 0.00 | 89 | 1022.2 |
| 20260905235326 | 17 | 22 | 1.6 | 1.6 | 0.00 | 0.00 | 0.00 | 89 | 1022.0 |
| 20260905234827 | 17 | 0 | 0.0 | 0.0 | 0.00 | 0.00 | 0.00 | 89 | 1021.9 |
| 20260905234326 | 17 | 22 | 0.0 | 0.0 | 0.00 | 0.00 | 0.00 | 89 | 1022.0 |
| 20260905233827 | 17 | 22 | 0.0 | 0.0 | 0.00 | 0.00 | 0.00 | 89 | 1022.1 |
| 20260905233325 | 17 | 22 | 0.0 | 1.6 | 0.00 | 0.00 | 0.00 | 89 | 1021.9 |
| 20260905232828 | 17 | 22 | 1.6 | 1.6 | 0.00 | 0.00 | 0.00 | 89 | 1021.9 |
| 20260905232325 | 17 | 292 | 0.0 | 0.0 | 0.00 | 0.00 | 0.00 | 88 | 1022.0 |
| 20260905231324 | 17 | 22 | 0.0 | 0.0 | 0.00 | 0.00 | 0.00 | 88 | 1022.0 |
| 20260905230324 | 17 | 22 | 0.0 | 0.0 | 0.00 | 0.00 | 0.00 | 88 | 1021.9 |
| 20260905225826 | 17 | 22 | 0.0 | 0.0 | 0.00 | 0.00 | 0.00 | 87 | 1021.9 |
| 20260905225323 | 17 | 0 | 0.0 | 0.0 | 0.00 | 0.00 | 0.00 | 87 | 1021.9 |
| 20260905224322 | 17 | 0 | 0.0 | 0.0 | 0.00 | 0.00 | 0.00 | 87 | 1021.9 |
| 20260905223823 | 18 | 0 | 0.0 | 0.0 | 0.00 | 0.00 | 0.00 | 87 | 1021.9 |
| 20260905223322 | 18 | 0 | 0.0 | 0.0 | 0.00 | 0.00 | 0.00 | 87 | 1021.8 |
| 20260905222823 | 18 | 45 | 0.0 | 0.0 | 0.00 | 0.00 | 0.00 | 87 | 1021.8 |
| 20260905222321 | 18 | 22 | 0.0 | 1.6 | 0.00 | 0.00 | 0.00 | 87 | 1021.8 |
| 20260905221321 | 18 | 0 | 0.0 | 0.0 | 0.00 | 0.00 | 0.00 | 86 | 1021.7 |
| 20260905220821 | 18 | 0 | 0.0 | 1.6 | 0.00 | 0.00 | 0.00 | 86 | 1021.6 |
| 20260905220320 | 18 | 22 | 1.6 | 1.6 | 0.00 | 0.00 | 0.00 | 86 | 1021.6 |
| 20260905215821 | 18 | 22 | 0.0 | 0.0 | 0.00 | 0.00 | 0.00 | 86 | 1021.6 |
| 20260905215319 | 18 | 22 | 0.0 | 0.0 | 0.00 | 0.00 | 0.00 | 85 | 1021.6 |
| 20260905214820 | 18 | 22 | 0.0 | 0.0 | 0.00 | 0.00 | 0.00 | 85 | 1021.6 |
| 20260905214319 | 18 | 0 | 0.0 | 0.0 | 0.00 | 0.00 | 0.00 | 85 | 1021.5 |
| 20260905213822 | 18 | 0 | 0.0 | 1.6 | 0.00 | 0.00 | 0.00 | 85 | 1021.5 |
| 20260905213318 | 18 | 22 | 1.6 | 1.6 | 0.00 | 0.00 | 0.00 | 85 | 1021.4 |
| 20260905212819 | 18 | 67 | 0.0 | 0.0 | 0.00 | 0.00 | 0.00 | 85 | 1021.4 |
| 20260905212318 | 18 | 22 | 0.0 | 0.0 | 0.00 | 0.00 | 0.00 | 85 | 1021.3 |
| 20260905211819 | 18 | 67 | 0.0 | 0.0 | 0.00 | 0.00 | 0.00 | 84 | 1021.4 |
| 20260905211317 | 18 | 0 | 0.0 | 0.0 | 0.00 | 0.00 | 0.00 | 84 | 1021.3 |
| 20260905210317 | 19 | 22 | 0.0 | 0.0 | 0.00 | 0.00 | 0.00 | 84 | 1021.4 |
| 20260905205818 | 19 | 22 | 0.0 | 0.0 | 0.00 | 0.00 | 0.00 | 84 | 1021.3 |
| 20260905205316 | 19 | 22 | 0.0 | 0.0 | 0.00 | 0.00 | 0.00 | 83 | 1021.2 |
| 20260905204817 | 19 | 22 | 0.0 | 0.0 | 0.00 | 0.00 | 0.00 | 83 | 1021.3 |
| 20260905204316 | 19 | 22 | 0.0 | 0.0 | 0.00 | 0.00 | 0.00 | 83 | 1021.2 |
| 20260905203816 | 19 | 22 | 0.0 | 0.0 | 0.00 | 0.00 | 0.00 | 83 | 1021.1 |
| 20260905203114 | 19 | 0 | 0.0 | 0.0 | 0.00 | 0.00 | 0.00 | 83 | 1020.9 |
| 20260905202113 | 19 | 22 | 1.6 | 1.6 | 0.00 | 0.00 | 0.00 | 83 | 1020.9 |
| 20260905201614 | 20 | 0 | 0.0 | 0.0 | 0.00 | 0.00 | 0.00 | 83 | 1020.9 |
| 20260905201113 | 20 | 0 | 0.0 | 0.0 | 0.00 | 0.00 | 0.00 | 83 | 1020.8 |
| 20260905200112 | 20 | 45 | 3.2 | 4.8 | 0.00 | 0.00 | 0.00 | 83 | 1020.8 |
| 20260905195112 | 20 | 22 | 1.6 | 1.6 | 0.00 | 0.00 | 0.00 | 83 | 1020.6 |
| 20260905194614 | 20 | 22 | 0.0 | 0.0 | 0.00 | 0.00 | 0.00 | 83 | 1020.5 |
| 20260905193609 | 20 | 0 | 0.0 | 0.0 | 0.00 | 0.00 | 0.00 | 83 | 1020.6 |
| 20260905193113 | 20 | 337 | 0.0 | 0.0 | 0.00 | 0.00 | 0.00 | 83 | 1020.5 |
| 20260905192609 | 20 | 22 | 0.0 | 1.6 | 0.00 | 0.00 | 0.00 | 83 | 1020.6 |
| 20260905191207 | 20 | 0 | 0.0 | 1.6 | 0.00 | 0.00 | 0.00 | 82 | 1020.4 |
| 20260905190709 | 20 | 22 | 0.0 | 3.2 | 0.00 | 0.00 | 0.00 | 82 | 1020.5 |
| 20260905190206 | 20 | 22 | 3.2 | 3.2 | 0.00 | 0.00 | 0.00 | 82 | 1020.4 |
| 20260905185826 | 20 | 0 | 1.6 | 1.6 | 0.00 | 0.00 | 0.00 | 81 | 1020.4 |
| 20260905185709 | 20 | 0 | 1.6 | 1.6 | 0.00 | 0.00 | 0.00 | 81 | 1020.4 |
| 20260905185206 | 20 | 0 | 0.0 | 0.0 | 0.00 | 0.00 | 0.00 | 81 | 1020.3 |
| 20260905184205 | 20 | 225 | 0.0 | 0.0 | 0.00 | 0.00 | 0.00 | 80 | 1020.3 |
| 20260905183706 | 20 | 0 | 0.0 | 3.2 | 0.00 | 0.00 | 0.00 | 80 | 1020.1 |
| 20260905183204 | 20 | 22 | 3.2 | 3.2 | 0.00 | 0.00 | 0.00 | 79 | 1020.2 |
| 20260905182706 | 20 | 315 | 0.0 | 1.6 | 0.00 | 0.00 | 0.00 | 78 | 1019.9 |
| 20260905182204 | 20 | 315 | 0.0 | 1.6 | 0.00 | 0.00 | 0.00 | 78 | 1019.8 |
| 20260905181203 | 21 | 45 | 0.0 | 1.6 | 0.00 | 0.00 | 0.00 | 75 | 1019.7 |
| 20260905180203 | 21 | 22 | 1.6 | 1.6 | 0.00 | 0.00 | 0.00 | 74 | 1019.4 |
| 20260905175203 | 21 | 90 | 0.0 | 3.2 | 0.00 | 0.00 | 0.00 | 74 | 1019.3 |
| 20260905174703 | 21 | 0 | 0.0 | 0.0 | 0.00 | 0.00 | 0.00 | 73 | 1019.2 |
| 20260905174202 | 21 | 22 | 0.0 | 1.6 | 0.00 | 0.00 | 0.00 | 73 | 1019.1 |
| 20260905173702 | 21 | 337 | 0.0 | 1.6 | 0.00 | 0.00 | 0.00 | 72 | 1019.1 |
| 20260905173201 | 21 | 0 | 1.6 | 1.6 | 0.00 | 0.00 | 0.00 | 72 | 1019.1 |
| 20260905172200 | 22 | 22 | 0.0 | 0.0 | 0.00 | 0.00 | 0.00 | 72 | 1019.0 |
| 20260905171701 | 22 | 67 | 0.0 | 3.2 | 0.00 | 0.00 | 0.00 | 71 | 1018.9 |
| 20260905171200 | 22 | 45 | 1.6 | 3.2 | 0.00 | 0.00 | 0.00 | 70 | 1019.0 |
| 20260905170704 | 22 | 0 | 3.2 | 3.2 | 0.00 | 0.00 | 0.00 | 70 | 1018.9 |
| 20260905170159 | 22 | 45 | 0.0 | 3.2 | 0.00 | 0.00 | 0.00 | 70 | 1019.1 |
| 20260905165159 | 22 | 45 | 4.8 | 6.4 | 0.00 | 0.00 | 0.00 | 68 | 1018.9 |
| 20260905164158 | 22 | 45 | 3.2 | 3.2 | 0.00 | 0.00 | 0.00 | 65 | 1018.7 |
| 20260905163056 | 23 | 157 | 0.0 | 0.0 | 0.00 | 0.00 | 0.00 | 64 | 1018.5 |
| 20260905162557 | 23 | 337 | 0.0 | 3.2 | 0.00 | 0.00 | 0.00 | 63 | 1018.5 |
| 20260905162056 | 23 | 45 | 3.2 | 3.2 | 0.00 | 0.00 | 0.00 | 63 | 1018.7 |
| 20260905161651 | 23 | 22 | 3.2 | 3.2 | 0.00 | 0.00 | 0.00 | 61 | 1018.7 |
| 20260905161556 | 23 | 22 | 3.2 | 3.2 | 0.00 | 0.00 | 0.00 | 61 | 1018.7 |
| 20260905161055 | 23 | 337 | 1.6 | 1.6 | 0.00 | 0.00 | 0.00 | 61 | 1018.7 |
| 20260905160054 | 23 | 45 | 0.0 | 3.2 | 0.00 | 0.00 | 0.00 | 60 | 1018.5 |
| 20260905155555 | 23 | 112 | 3.2 | 3.2 | 0.00 | 0.00 | 0.00 | 59 | 1018.5 |
| 20260905155054 | 24 | 315 | 3.2 | 4.8 | 0.00 | 0.00 | 0.00 | 59 | 1018.3 |
| 20260905154555 | 24 | 22 | 0.0 | 3.2 | 0.00 | 0.00 | 0.00 | 58 | 1018.3 |
| 20260905154053 | 25 | 337 | 0.0 | 3.2 | 0.00 | 0.00 | 0.00 | 57 | 1018.3 |
| 20260905153053 | 25 | 225 | 0.0 | 6.4 | 0.00 | 0.00 | 0.00 | 56 | 1018.2 |
| 20260905152554 | 25 | 112 | 0.0 | 3.2 | 0.00 | 0.00 | 0.00 | 56 | 1018.1 |
| 20260905152052 | 25 | 45 | 3.2 | 4.8 | 0.00 | 0.00 | 0.00 | 55 | 1018.0 |
| 20260905151553 | 26 | 0 | 0.0 | 9.7 | 0.00 | 0.00 | 0.00 | 55 | 1017.9 |
| 20260905151052 | 26 | 22 | 1.6 | 3.2 | 0.00 | 0.00 | 0.00 | 55 | 1017.9 |
| 20260905145850 | 26 | 22 | 6.4 | 9.7 | 0.00 | 0.00 | 0.00 | 53 | 1017.9 |
| 20260905145352 | 26 | 337 | 3.2 | 3.2 | 0.00 | 0.00 | 0.00 | 52 | 1017.7 |
| 20260905144849 | 26 | 67 | 3.2 | 3.2 | 0.00 | 0.00 | 0.00 | 52 | 1017.7 |
| 20260905144353 | 26 | 45 | 1.6 | 3.2 | 0.00 | 0.00 | 0.00 | 51 | 1017.7 |
| 20260905143848 | 26 | 90 | 3.2 | 3.2 | 0.00 | 0.00 | 0.00 | 50 | 1017.6 |
| 20260905143349 | 27 | 90 | 3.2 | 6.4 | 0.00 | 0.00 | 0.00 | 49 | 1017.4 |
| 20260905142848 | 27 | 22 | 6.4 | 6.4 | 0.00 | 0.00 | 0.00 | 49 | 1017.4 |
| 20260905141847 | 28 | 22 | 3.2 | 3.2 | 0.00 | 0.00 | 0.00 | 49 | 1017.3 |
| 20260905141348 | 27 | 22 | 3.2 | 4.8 | 0.00 | 0.00 | 0.00 | 49 | 1017.3 |
| 20260905140847 | 27 | 67 | 4.8 | 4.8 | 0.00 | 0.00 | 0.00 | 49 | 1017.3 |
| 20260905140546 | 27 | 67 | 3.2 | 3.2 | 0.00 | 0.00 | 0.00 | 49 | 1017.3 |
| 20260905140347 | 27 | 67 | 3.2 | 3.2 | 0.00 | 0.00 | 0.00 | 49 | 1017.3 |
| 20260905135846 | 27 | 112 | 3.2 | 3.2 | 0.00 | 0.00 | 0.00 | 49 | 1017.2 |
| 20260905134846 | 28 | 0 | 0.0 | 4.8 | 0.00 | 0.00 | 0.00 | 49 | 1017.3 |
| 20260905134346 | 28 | 0 | 0.0 | 4.8 | 0.00 | 0.00 | 0.00 | 49 | 1017.2 |
| 20260905133745 | 29 | 22 | 4.8 | 4.8 | 0.00 | 0.00 | 0.00 | 49 | 1017.1 |
| 20260905133243 | 29 | 247 | 1.6 | 6.4 | 0.00 | 0.00 | 0.00 | 49 | 1017.0 |
| 20260905132744 | 29 | 45 | 6.4 | 6.4 | 0.00 | 0.00 | 0.00 | 48 | 1016.9 |
| 20260905132243 | 29 | 45 | 6.4 | 6.4 | 0.00 | 0.00 | 0.00 | 48 | 1017.0 |
| 20260905131817 | 30 | 270 | 0.0 | 3.2 | 0.00 | 0.00 | 0.00 | 48 | 1016.8 |
| 20260905131744 | 30 | 270 | 0.0 | 3.2 | 0.00 | 0.00 | 0.00 | 48 | 1016.8 |
| 20260905131242 | 30 | 0 | 3.2 | 3.2 | 0.00 | 0.00 | 0.00 | 47 | 1016.8 |
| 20260905130743 | 31 | 292 | 3.2 | 4.8 | 0.00 | 0.00 | 0.00 | 47 | 1016.6 |
| 20260905130241 | 31 | 337 | 3.2 | 3.2 | 0.00 | 0.00 | 0.00 | 47 | 1016.6 |
| 20260905125742 | 31 | 337 | 3.2 | 6.4 | 0.00 | 0.00 | 0.00 | 49 | 1016.6 |
| 20260905125241 | 31 | 45 | 6.4 | 93.3 | 0.00 | 0.00 | 0.00 | 49 | 1016.5 |
| 20260905124240 | 30 | 270 | 0.0 | 3.2 | 0.00 | 0.00 | 0.00 | 50 | 1016.4 |
| 20260905123741 | 30 | 202 | 3.2 | 3.2 | 0.00 | 0.00 | 0.00 | 50 | 1016.5 |
| 20260905123240 | 30 | 45 | 1.6 | 1.6 | 0.00 | 0.00 | 0.00 | 50 | 1016.6 |
| 20260905122741 | 30 | 45 | 1.6 | 1.6 | 0.00 | 0.00 | 0.00 | 49 | 1016.5 |
| 20260905122239 | 30 | 45 | 1.6 | 1.6 | 0.00 | 0.00 | 0.00 | 48 | 1016.6 |
| 20260905121239 | 31 | 337 | 3.2 | 3.2 | 0.00 | 0.00 | 0.00 | 50 | 1016.4 |
| 20260905120739 | 31 | 337 | 3.2 | 3.2 | 0.00 | 0.00 | 0.00 | 49 | 1016.5 |
| 20260905120238 | 31 | 225 | 0.0 | 0.0 | 0.00 | 0.00 | 0.00 | 47 | 1016.5 |
| 20260905115739 | 31 | 225 | 0.0 | 0.0 | 0.00 | 0.00 | 0.00 | 45 | 1016.4 |
| 20260905115238 | 31 | 225 | 0.0 | 0.0 | 0.00 | 0.00 | 0.00 | 45 | 1016.5 |
| 20260905114237 | 31 | 0 | 1.6 | 1.6 | 0.00 | 0.00 | 0.00 | 45 | 1016.8 |
| 20260905113739 | 31 | 45 | 0.0 | 1.6 | 0.00 | 0.00 | 0.00 | 46 | 1016.7 |
| 20260905113236 | 31 | 202 | 1.6 | 1.6 | 0.00 | 0.00 | 0.00 | 46 | 1016.6 |
| 20260905112236 | 31 | 112 | 9.7 | 9.7 | 0.00 | 0.00 | 0.00 | 44 | 1016.7 |
| 20260905111737 | 31 | 180 | 4.8 | 4.8 | 0.00 | 0.00 | 0.00 | 47 | 1016.7 |
| 20260905111235 | 31 | 45 | 1.6 | 1.6 | 0.00 | 0.00 | 0.00 | 47 | 1016.5 |
| 20260905110235 | 30 | 0 | 0.0 | 0.0 | 0.00 | 0.00 | 0.00 | 48 | 1016.6 |
| 20260905105736 | 30 | 0 | 0.0 | 1.6 | 0.00 | 0.00 | 0.00 | 49 | 1016.7 |
| 20260905105234 | 30 | 202 | 1.6 | 1.6 | 0.00 | 0.00 | 0.00 | 48 | 1016.7 |
| 20260905104234 | 30 | 67 | 0.0 | 1.6 | 0.00 | 0.00 | 0.00 | 50 | 1016.8 |
| 20260905103734 | 30 | 0 | 1.6 | 1.6 | 0.00 | 0.00 | 0.00 | 50 | 1016.8 |
| 20260905103233 | 29 | 22 | 0.0 | 0.0 | 0.00 | 0.00 | 0.00 | 51 | 1016.8 |
| 20260905102734 | 29 | 247 | 0.0 | 0.0 | 0.00 | 0.00 | 0.00 | 51 | 1016.9 |
| 20260905102232 | 29 | 225 | 0.0 | 0.0 | 0.00 | 0.00 | 0.00 | 52 | 1016.8 |
| 20260905101733 | 28 | 337 | 0.0 | 4.8 | 0.00 | 0.00 | 0.00 | 52 | 1016.8 |
| 20260905101232 | 28 | 22 | 4.8 | 4.8 | 0.00 | 0.00 | 0.00 | 51 | 1016.9 |
| 20260905100735 | 28 | 0 | 3.2 | 3.2 | 0.00 | 0.00 | 0.00 | 52 | 1016.8 |
| 20260905100231 | 28 | 112 | 0.0 | 0.0 | 0.00 | 0.00 | 0.00 | 53 | 1016.7 |
| 20260905095732 | 28 | 157 | 0.0 | 1.6 | 0.00 | 0.00 | 0.00 | 54 | 1016.7 |
| 20260905095231 | 28 | 112 | 1.6 | 1.6 | 0.00 | 0.00 | 0.00 | 55 | 1016.7 |
| 20260905094732 | 28 | 337 | 0.0 | 0.0 | 0.00 | 0.00 | 0.00 | 55 | 1016.7 |
| 20260905094230 | 27 | 0 | 0.0 | 1.6 | 0.00 | 0.00 | 0.00 | 55 | 1016.9 |
| 20260905093732 | 27 | 157 | 0.0 | 1.6 | 0.00 | 0.00 | 0.00 | 56 | 1016.9 |
| 20260905093230 | 27 | 22 | 0.0 | 0.0 | 0.00 | 0.00 | 0.00 | 57 | 1016.9 |
| 20260905092730 | 27 | 135 | 0.0 | 1.6 | 0.00 | 0.00 | 0.00 | 58 | 1017.0 |
| 20260905091827 | 26 | 157 | 0.0 | 0.0 | 0.00 | 0.00 | 0.00 | 58 | 1017.0 |
| 20260905090945 | 27 | 112 | 0.0 | 0.0 | 0.00 | 0.00 | 0.00 | 58 | 1016.9 |
| 20260905090827 | 27 | 112 | 0.0 | 0.0 | 0.00 | 0.00 | 0.00 | 58 | 1016.9 |
| 20260905090329 | 27 | 112 | 0.0 | 1.6 | 0.00 | 0.00 | 0.00 | 58 | 1016.8 |
| 20260905085826 | 27 | 315 | 1.6 | 1.6 | 0.00 | 0.00 | 0.00 | 58 | 1016.8 |
| 20260905085327 | 27 | 292 | 0.0 | 0.0 | 0.00 | 0.00 | 0.00 | 57 | 1016.8 |
| 20260905084826 | 27 | 135 | 0.0 | 1.6 | 0.00 | 0.00 | 0.00 | 57 | 1016.8 |
| 20260905083825 | 27 | 315 | 4.8 | 4.8 | 0.00 | 0.00 | 0.00 | 58 | 1016.8 |
| 20260905083326 | 27 | 292 | 1.6 | 1.6 | 0.00 | 0.00 | 0.00 | 60 | 1016.6 |
| 20260905082825 | 26 | 157 | 0.0 | 1.6 | 0.00 | 0.00 | 0.00 | 61 | 1016.6 |
| 20260905082325 | 26 | 112 | 1.6 | 1.6 | 0.00 | 0.00 | 0.00 | 63 | 1016.7 |
| 20260905081824 | 26 | 157 | 0.0 | 0.0 | 0.00 | 0.00 | 0.00 | 64 | 1016.7 |
| 20260905081325 | 25 | 0 | 0.0 | 1.6 | 0.00 | 0.00 | 0.00 | 66 | 1016.7 |
| 20260905080823 | 25 | 135 | 0.0 | 0.0 | 0.00 | 0.00 | 0.00 | 67 | 1016.8 |
| 20260905080324 | 25 | 67 | 0.0 | 3.2 | 0.00 | 0.00 | 0.00 | 68 | 1016.7 |
| 20260905075521 | 25 | 22 | 0.0 | 3.2 | 0.00 | 0.00 | 0.00 | 71 | 1016.6 |
| 20260905075022 | 24 | 22 | 0.0 | 1.6 | 0.00 | 0.00 | 0.00 | 72 | 1016.7 |
| 20260905074521 | 23 | 180 | 0.0 | 0.0 | 0.00 | 0.00 | 0.00 | 72 | 1016.6 |
| 20260905074022 | 23 | 112 | 0.0 | 1.6 | 0.00 | 0.00 | 0.00 | 73 | 1016.6 |
| 20260905073520 | 23 | 225 | 1.6 | 1.6 | 0.00 | 0.00 | 0.00 | 74 | 1016.5 |
| 20260905073021 | 22 | 180 | 0.0 | 1.6 | 0.00 | 0.00 | 0.00 | 75 | 1016.4 |
| 20260905072520 | 22 | 135 | 1.6 | 1.6 | 0.00 | 0.00 | 0.00 | 75 | 1016.5 |
| 20260905072020 | 22 | 135 | 0.0 | 0.0 | 0.00 | 0.00 | 0.00 | 76 | 1016.4 |
| 20260905071519 | 22 | 157 | 0.0 | 0.0 | 0.00 | 0.00 | 0.00 | 76 | 1016.4 |
| 20260905071020 | 22 | 45 | 0.0 | 1.6 | 0.00 | 0.00 | 0.00 | 76 | 1016.4 |
| 20260905070519 | 22 | 22 | 0.0 | 0.0 | 0.00 | 0.00 | 0.00 | 77 | 1016.2 |
| 20260905070019 | 22 | 135 | 0.0 | 0.0 | 0.00 | 0.00 | 0.00 | 77 | 1016.2 |
| 20260905065518 | 21 | 45 | 0.0 | 1.6 | 0.00 | 0.00 | 0.00 | 78 | 1016.2 |
| 20260905065242 | 21 | 67 | 0.0 | 1.6 | 0.00 | 0.00 | 0.00 | 79 | 1016.2 |
| 20260905065019 | 21 | 67 | 0.0 | 1.6 | 0.00 | 0.00 | 0.00 | 79 | 1016.2 |
| 20260905064517 | 21 | 22 | 0.0 | 1.6 | 0.00 | 0.00 | 0.00 | 79 | 1016.1 |
| 20260905063517 | 21 | 112 | 0.0 | 0.0 | 0.00 | 0.00 | 0.00 | 81 | 1016.0 |
| 20260905063018 | 20 | 45 | 0.0 | 1.6 | 0.00 | 0.00 | 0.00 | 81 | 1016.0 |
| 20260905062516 | 20 | 22 | 0.0 | 1.6 | 0.00 | 0.00 | 0.00 | 82 | 1016.0 |
| 20260905061516 | 20 | 225 | 0.0 | 1.6 | 0.00 | 0.00 | 0.00 | 84 | 1016.0 |
| 20260905061016 | 19 | 135 | 1.6 | 1.6 | 0.00 | 0.00 | 0.00 | 86 | 1015.9 |
| 20260905060515 | 18 | 270 | 0.0 | 0.0 | 0.00 | 0.00 | 0.00 | 86 | 1015.9 |
| 20260905060016 | 18 | 0 | 0.0 | 0.0 | 0.00 | 0.00 | 0.00 | 87 | 1016.1 |
| 20260905055514 | 18 | 22 | 0.0 | 0.0 | 0.00 | 0.00 | 0.00 | 87 | 1016.1 |
| 20260905055015 | 17 | 45 | 0.0 | 0.0 | 0.00 | 0.00 | 0.00 | 88 | 1016.0 |
| 20260905054514 | 17 | 45 | 0.0 | 0.0 | 0.00 | 0.00 | 0.00 | 89 | 1016.0 |
| 20260905054016 | 17 | 45 | 0.0 | 3.2 | 0.00 | 0.00 | 0.00 | 89 | 1016.1 |
| 20260905053513 | 16 | 337 | 0.0 | 0.0 | 0.00 | 0.00 | 0.00 | 89 | 1016.1 |
| 20260905053014 | 16 | 337 | 0.0 | 0.0 | 0.00 | 0.00 | 0.00 | 89 | 1016.0 |
| 20260905052513 | 16 | 22 | 0.0 | 0.0 | 0.00 | 0.00 | 0.00 | 89 | 1016.0 |